Hatteras, NC

9:18 AM EDT on October 17, 2019 (GMT -0400)
Mitchell

Weather History for KHSE - August, 2019

Change the Weather History Date:

Thursday, August 1, 2019

  Actual Average Record
Temperature  
Mean Temperature 81 °F 79 °F  
Max Temperature 89 °F 85 °F 91 °F (2002)
Min Temperature 73 °F 74 °F 61 °F (1966)
Degree Days  
Heating Degree Days 0 0  
Month to date heating degree days 0 0  
Since 1 June heating degree days 0 3  
Since 1 July heating degree days 0 0  
Cooling Degree Days 16 14  
Month to date cooling degree days 17 14  
Year to date cooling degree days 1317 902  
Since 1 June cooling degree days 935 759  
Growing Degree Days 31 (Base 50)    
Moisture  
Dew Point 74 °F    
Average Humidity 80    
Maximum Humidity 94    
Minimum Humidity 63    
Precipitation  
Precipitation 0.00 in 0.19 in 2.16 in (1930)
Month to date precipitation 0.00 0.19  
Year to date precipitation 31.72 30.45  
Snow  
Snow 0.00 in - - ()
Month to date snowfall 0.0  
Since 1 July snowfall 0.0  
Snow Depth 0.00 in    
Sea Level Pressure  
Sea Level Pressure 30.07 in    
Wind  
Wind Speed 3 mph ()    
Max Wind Speed 12 mph    
Max Gust Speed 19 mph    
Visibility 10.0 miles    
Events      
T = Trace of Precipitation, MM = Missing Value Source: Averaged Metar Reports

Daily Weather History Graph

Daily Weather History Graph

Search for Another Location

Airport or City:

Astronomy

Aug. 01, 2019 Rise Set
Actual Time 6:11 AM EDT 8:05 PM EDT
Civil Twilight 5:43 AM EDT 8:33 PM EDT
Nautical Twilight 5:09 AM EDT 9:07 PM EDT
Astronomical Twilight 4:33 AM EDT 9:43 PM EDT
Moon 6:33 AM EDT (8/1) 8:52 PM EDT (8/1)
Length of Visible Light 14h 50m
Length of Day
13h 54m
New Moon, 0% of the Moon is Illuminated
Aug 1
New Moon
Aug 7
First Quarter
Aug 15
Full
Aug 23
Last Quarter
Aug 30
New

Hourly Weather History & Observations

Time (EDT) Temp. Heat Index Dew Point Humidity Pressure Visibility Wind Dir Wind Speed Gust Speed Precip Events Conditions
12:51 AM 80.1 °F 85.4 °F 75.9 °F 87% 30.07 in 10.0 mi Calm Calm - N/A   Mostly Cloudy
1:51 AM 80.1 °F 85.4 °F 75.9 °F 87% 30.06 in 10.0 mi West 3.5 mph - N/A   Mostly Cloudy
2:51 AM 79.0 °F - 73.0 °F 82% 30.06 in 10.0 mi NNW 8.1 mph 18.4 mph N/A   Mostly Cloudy
3:51 AM 79.0 °F - 73.9 °F 84% 30.04 in 10.0 mi Variable 5.8 mph - N/A   Clear
4:51 AM 75.0 °F - 73.0 °F 94% 30.02 in 10.0 mi Calm Calm - N/A   Clear
5:51 AM 73.9 °F - 72.0 °F 93% 30.03 in 10.0 mi Calm Calm - N/A   Clear
6:51 AM 75.0 °F - 73.0 °F 94% 30.05 in 10.0 mi Calm Calm - N/A   Clear
7:51 AM 81.0 °F 87.9 °F 77.0 °F 88% 30.06 in 10.0 mi Calm Calm - N/A   Clear
8:51 AM 82.0 °F 89.4 °F 75.9 °F 82% 30.08 in 10.0 mi NNE 3.5 mph - N/A   Clear
9:51 AM 82.9 °F 90.2 °F 75.0 °F 77% 30.09 in 10.0 mi NNE 3.5 mph - N/A   Partly Cloudy
10:51 AM 84.0 °F 91.9 °F 75.0 °F 74% 30.11 in 10.0 mi Variable 3.5 mph - N/A   Clear
11:51 AM 84.9 °F 91.4 °F 73.0 °F 67% 30.12 in 10.0 mi Variable 5.8 mph - N/A   Clear
12:51 PM 86.0 °F 93.8 °F 73.9 °F 67% 30.12 in 10.0 mi North - - N/A   Clear
1:51 PM 86.0 °F 95.1 °F 75.0 °F 70% 30.10 in 10.0 mi Variable 5.8 mph - N/A   Clear
2:51 PM 88.0 °F 96.5 °F 73.9 °F 63% 30.08 in 10.0 mi NE 4.6 mph - N/A   Clear
3:51 PM 87.1 °F 95.4 °F 73.9 °F 65% 30.06 in 10.0 mi ESE 11.5 mph 17.3 mph N/A   Clear
4:51 PM 84.0 °F 91.2 °F 73.9 °F 72% 30.06 in 10.0 mi Variable 4.6 mph - N/A   Clear
5:51 PM 82.0 °F 87.4 °F 73.0 °F 74% 30.04 in 10.0 mi East 4.6 mph - N/A   Clear
6:51 PM 82.0 °F 87.9 °F 73.9 °F 76% 30.05 in 10.0 mi East 4.6 mph - N/A   Clear
7:51 PM 81.0 °F 86.2 °F 73.9 °F 79% 30.06 in 10.0 mi ESE 4.6 mph - N/A   Clear
8:51 PM 79.0 °F - 73.9 °F 84% 30.08 in 10.0 mi Calm Calm - N/A   Clear
9:51 PM 78.1 °F - 73.9 °F 87% 30.10 in 10.0 mi NE 3.5 mph - N/A   Clear
10:51 PM 77.0 °F - 73.9 °F 90% 30.09 in 10.0 mi Calm Calm - N/A   Clear
11:51 PM 77.0 °F - 75.0 °F 94% 30.09 in 10.0 mi Calm Calm - N/A   Clear